{"data":{"norad_id":51144,"epoch":"2026-09-20T01:12:08.696160Z","epoch_age_seconds":88735,"freshness":"FRESH","line1":"1 51144U 22005AS  26263.05010065  .00000608  00000+0  31347-4 0  9995","line2":"2 51144  53.1590 131.8893 0001419  86.8727 273.2436 15.31701873258284","mean_motion":15.31701873,"eccentricity":0.0001419,"inclination_deg":53.159,"raan_deg":131.8893,"arg_perigee_deg":86.8727,"mean_anomaly_deg":273.2436,"bstar":3.1347e-5,"rev_number":25828,"period_min":94.013072999618,"perigee_km":469.76255706245,"apogee_km":471.70626676915,"semimajor_km":6848.8714119158,"source":"CELESTRAK","updated_at":"2026-09-20T09:00:39.592090Z"}}